Export;EXP-2023-01 (20230706 13:47);;;StationsCode;NL10644;NL10741;NL10742;NL49007;NL49012;NL49014;NL49551;NL49553;NL49561
Periode;20180101 00:00 - 20190101 00:00;;;BeheerderMeetStation;RIVM;RIVM;RIVM;GGD A'dam;GGD A'dam;GGD A'dam;GGD A'dam;GGD A'dam;GGD A'dam
Bron;https://data.rivm.nl/data/luchtmeetnet;;;StationsNaam;Cabauw-Wielsekade;Nijmegen-Graafseweg;Nijmegen-Ruyterstraat;Amsterdam-Einsteinweg;Amsterdam-Van Diemenstraat;Amsterdam-Vondelpark;IJmuiden-Kanaaldijk;Wijk aan Zee-Burgemeester Rothestraat;Badhoevedorp-Sloterweg
Beschrijving data;https://data.rivm.nl/data/luchtmeetnet/readme.pdf;;;Latitude,Longitude;(51.974489,4.923301);(51.841372,5.857777);(51.838221,5.856938);(52.381331,4.845233);(52.389983,4.887811);(52.359714,4.866208);(52.463039,4.601842);(52.493992,4.601986);(52.334003,4.774006)
Accreditatienummer;https://www.rva.nl/alle-geaccrediteerden/;;;StationsGebied;regionaal;stad;stad;stad;stad;stad;stad;stad;stad
;;;;StationsType;achtergrond;verkeer;achtergrond;verkeer;verkeer;achtergrond;industrie;industrie;achtergrond
;;;;Meetprincipe;Niet-dispersieve infrarood (NDIR);Niet-dispersieve infrarood (NDIR);Niet-dispersieve infrarood (NDIR);Infrarood gasfiltercorrelatie (IR-GFC);Infrarood gasfiltercorrelatie (IR-GFC);Infrarood gasfiltercorrelatie (IR-GFC);Infrarood gasfiltercorrelatie (IR-GFC);Infrarood gasfiltercorrelatie (IR-GFC);Infrarood gasfiltercorrelatie (IR-GFC)
;;;;Meetopstelling;Thermo model 48w CO analyser              ;Thermo model 48w CO analyser              ;Thermo model 48w CO analyser              ;Teledyne API T300 gas filter correlation CO analyser;Teledyne API T300 gas filter correlation CO analyser;Teledyne API T300 gas filter correlation CO analyser;Teledyne API T300 gas filter correlation CO analyser;Teledyne API T300 gas filter correlation CO analyser;Teledyne API T300 gas filter correlation CO analyser
;;;;Accreditatienummer;nvt;nvt;nvt;L426;L426;L426;L426;L426;L426
Component;Bep.periode;Eenheid; Begindatumtijd;Einddatumtijd;NL10644;NL10741;NL10742;NL49007;NL49012;NL49014;NL49551;NL49553;NL49561
CO;uur;�g/m�;20180101 00:00;20180101 01:00;162.39;257.25;293.43;;323;125.7;239;191.7;209.4
CO;uur;�g/m�;20180101 01:00;20180101 02:00;160.71;237.34;237.23;;328;129.9;233;257.2;206.7
CO;uur;�g/m�;20180101 02:00;20180101 03:00;174.5;195.94;202.8;;270;112;218.5;166.4;201
CO;uur;�g/m�;20180101 03:00;20180101 04:00;154.83;200.67;207.5;;211;114.2;219.5;151.2;177
CO;uur;�g/m�;20180101 04:00;20180101 05:00;153.67;186.57;200.93;;211.7;94.8;217.3;151.9;166.4
CO;uur;�g/m�;20180101 05:00;20180101 06:00;151.36;206.92;203.95;;201.5;83;217.3;154.6;170.2
CO;uur;�g/m�;20180101 06:00;20180101 07:00;158.69;237.94;196.44;;211.7;94.5;208.3;153.8;170.4
CO;uur;�g/m�;20180101 07:00;20180101 08:00;152.23;206.21;183.5;;219.1;127.7;201.5;152.5;207.1
CO;uur;�g/m�;20180101 08:00;20180101 09:00;173.05;201.98;190.18;;250.5;102.9;203.8;153.1;254.6
CO;uur;�g/m�;20180101 09:00;20180101 10:00;191.18;164.3;174.43;;231.8;89.7;195.5;148.2;219.5
CO;uur;�g/m�;20180101 10:00;20180101 11:00;191.27;162.29;179.75;;248.4;106.8;211.4;147.2;211.3
CO;uur;�g/m�;20180101 11:00;20180101 12:00;175.75;176.49;196.65;;271.5;101.3;225.8;241.9;226.2
CO;uur;�g/m�;20180101 12:00;20180101 13:00;153;189.09;208.85;;259.2;92.9;218.9;217.5;231.7
CO;uur;�g/m�;20180101 13:00;20180101 14:00;154.64;191.7;281.15;;313;132.7;247.1;234.7;268.6
CO;uur;�g/m�;20180101 14:00;20180101 15:00;152.03;276.73;312.24;;380.8;157.9;257.7;318.2;288.4
CO;uur;�g/m�;20180101 15:00;20180101 16:00;164.47;249.73;380.57;;399.9;157.7;283.3;684.8;278.9
CO;uur;�g/m�;20180101 16:00;20180101 17:00;191.85;238.14;347.81;;427.6;185.5;318.4;770.5;310.3
CO;uur;�g/m�;20180101 17:00;20180101 18:00;205.44;292.34;309.32;;434.3;174.6;348.4;675.7;322.8
CO;uur;�g/m�;20180101 18:00;20180101 19:00;185.2;440.22;317.66;;419.9;192;254.1;185.5;292.7
CO;uur;�g/m�;20180101 19:00;20180101 20:00;227.91;512.76;337.8;;427.7;222.2;233.7;178.3;304.8
CO;uur;�g/m�;20180101 20:00;20180101 21:00;263.96;420.58;312.76;;347.8;201;246.4;175.8;268
CO;uur;�g/m�;20180101 21:00;20180101 22:00;266.66;335.26;254.96;;324.4;169.3;201.5;172.9;267
CO;uur;�g/m�;20180101 22:00;20180101 23:00;253.17;302.31;248.08;;325;211.2;204.9;180.5;242.5
CO;uur;�g/m�;20180101 23:00;20180102 00:00;191.14;337.67;272.49;;236.4;168.9;208.1;177;213.6
CO;uur;�g/m�;20180102 00:00;20180102 01:00;191.91;213.21;174.52;;238.9;135.3;190.4;167.9;195.4
CO;uur;�g/m�;20180102 01:00;20180102 02:00;176.14;219.81;155.65;;216;111.6;181.7;166.8;191.8
CO;uur;�g/m�;20180102 02:00;20180102 03:00;171.61;208.12;149.81;;250.5;108.4;204.8;180.9;193.4
CO;uur;�g/m�;20180102 03:00;20180102 04:00;183.08;187.68;169.31;;227;120.5;202.5;174.4;196.9
CO;uur;�g/m�;20180102 04:00;20180102 05:00;188.57;195.23;168.69;;239;124.3;195.3;176.5;210.5
CO;uur;�g/m�;20180102 05:00;20180102 06:00;170.93;224.95;170.04;;252.9;137.1;226.2;171.6;238.2
CO;uur;�g/m�;20180102 06:00;20180102 07:00;179.03;237.24;177.35;;261.1;144.6;223.5;165.6;208.1
CO;uur;�g/m�;20180102 07:00;20180102 08:00;181.44;306.55;199.99;;260.2;121.8;231.5;159.1;228.8
CO;uur;�g/m�;20180102 08:00;20180102 09:00;171.8;303.12;207.5;;269.6;154.8;220.8;180.8;244.4
CO;uur;�g/m�;20180102 09:00;20180102 10:00;176.72;291.43;212.61;261.7;300.4;173;228.9;177.1;268.8
CO;uur;�g/m�;20180102 10:00;20180102 11:00;158.78;351.88;225.44;232.1;311.5;170.2;217.7;188.5;233.7
CO;uur;�g/m�;20180102 11:00;20180102 12:00;166.69;338.28;209.48;205.7;247.5;139.6;223.8;184.5;224.8
CO;uur;�g/m�;20180102 12:00;20180102 13:00;214.99;333.54;193.93;239.9;269.2;136.6;221.3;193.8;225.5
CO;uur;�g/m�;20180102 13:00;20180102 14:00;160.04;342.31;206.66;244.7;302.6;127.3;209.5;190.9;218.2
CO;uur;�g/m�;20180102 14:00;20180102 15:00;172.86;338.98;218.14;286.7;359.9;151.3;221.9;201.3;258.4
CO;uur;�g/m�;20180102 15:00;20180102 16:00;271.29;308.66;260.39;329.1;389.7;132.9;225.5;328.1;272.1
CO;uur;�g/m�;20180102 16:00;20180102 17:00;222.32;372.12;251.1;;434.7;174;262.5;815.6;325.3
CO;uur;�g/m�;20180102 17:00;20180102 18:00;228.2;348.45;288.66;;503.5;220.6;303.1;615;390.9
CO;uur;�g/m�;20180102 18:00;20180102 19:00;194.55;287.81;251.31;;404.1;165.4;269.6;751.7;281.8
CO;uur;�g/m�;20180102 19:00;20180102 20:00;185.58;254.67;259.45;;317.2;114.6;230.5;240.4;250.1
CO;uur;�g/m�;20180102 20:00;20180102 21:00;183.37;236.03;198.21;;291.1;128;236.1;965.7;261.5
CO;uur;�g/m�;20180102 21:00;20180102 22:00;199.08;267.46;201.66;;311.1;153.8;247.6;1120.9;283
CO;uur;�g/m�;20180102 22:00;20180102 23:00;211.61;257.38;207.18;;331;174.4;220.4;275.4;275.4
CO;uur;�g/m�;20180102 23:00;20180103 00:00;200.01;288.78;231.04;;293.4;159.3;222.2;262.4;261.9
CO;uur;�g/m�;20180103 00:00;20180103 01:00;151.87;207.4;187.29;;266.7;140.1;211.2;896.4;242.4
CO;uur;�g/m�;20180103 01:00;20180103 02:00;151.84;223.34;181.63;;250.1;122.9;216.4;760.1;236
CO;uur;�g/m�;20180103 02:00;20180103 03:00;167.17;207.52;176.2;;231.7;107;217.3;1120.6;214.2
CO;uur;�g/m�;20180103 03:00;20180103 04:00;156.47;204.7;159.93;;210.3;102.5;201.1;186.2;203
CO;uur;�g/m�;20180103 04:00;20180103 05:00;142.49;207.62;149.29;;184.6;78;193.5;153.2;193.4
CO;uur;�g/m�;20180103 05:00;20180103 06:00;137.19;200.17;141.04;;196.5;79.1;202.8;164.6;195.2
CO;uur;�g/m�;20180103 06:00;20180103 07:00;148.47;219;155.86;;198;81;199.9;162.3;195.2
CO;uur;�g/m�;20180103 07:00;20180103 08:00;137.29;244.29;181.1;;203.8;88.3;195.9;157.1;187
CO;uur;�g/m�;20180103 08:00;20180103 09:00;156.37;277.53;181.94;;221.8;90.7;197.2;158.4;195.4
CO;uur;�g/m�;20180103 09:00;20180103 10:00;129.19;245.8;186.63;;205.8;79;198.7;158.8;194.4
CO;uur;�g/m�;20180103 10:00;20180103 11:00;123.98;260.41;185.69;185.4;190.2;96.8;207.5;156.1;191.4
CO;uur;�g/m�;20180103 11:00;20180103 12:00;118.29;238.65;179.43;191.4;198.5;86.5;208.5;161.5;188.4
CO;uur;�g/m�;20180103 12:00;20180103 13:00;125.43;270.28;180.58;198.5;195.4;92;203.4;158.9;193.3
CO;uur;�g/m�;20180103 13:00;20180103 14:00;115.98;275.52;185.59;208;200.6;105.1;206.1;164.5;194.2
CO;uur;�g/m�;20180103 14:00;20180103 15:00;124.27;251.14;197.69;204.3;212.4;112.1;211.6;163.9;190.9
CO;uur;�g/m�;20180103 15:00;20180103 16:00;132.95;293.85;199.57;214.1;208.7;115.8;207.3;171;199
CO;uur;�g/m�;20180103 16:00;20180103 17:00;134.01;319.24;190.07;207.4;214.9;114.6;220.4;174.4;200
CO;uur;�g/m�;20180103 17:00;20180103 18:00;149.43;290.33;184.13;212.6;211.7;119.1;202.5;170.7;203.5
CO;uur;�g/m�;20180103 18:00;20180103 19:00;135.74;242.48;182.67;204.6;211;118.9;210.1;179.3;197.9
CO;uur;�g/m�;20180103 19:00;20180103 20:00;140.56;237.74;184.55;199.7;207;113.2;201.6;176.1;205.2
CO;uur;�g/m�;20180103 20:00;20180103 21:00;130.15;238.24;201.76;196.5;210.8;119.7;208.1;179.4;203.9
CO;uur;�g/m�;20180103 21:00;20180103 22:00;148.27;247.71;188.61;195.1;202.7;119;204;184.3;192.4
CO;uur;�g/m�;20180103 22:00;20180103 23:00;151.84;250.74;183.09;191.1;191.2;104.1;201.8;186.5;193.1
CO;uur;�g/m�;20180103 23:00;20180104 00:00;135.1;252.92;193.07;187.1;195.7;93.1;187.6;190.6;200
CO;uur;�g/m�;20180104 00:00;20180104 01:00;137.01;193.77;176.98;;192.3;91.8;190.3;182.7;200.9
CO;uur;�g/m�;20180104 01:00;20180104 02:00;140.76;199.86;182.25;;200.3;85.4;186.4;188.2;198.6
CO;uur;�g/m�;20180104 02:00;20180104 03:00;132.85;187.98;178.5;;193.2;87.8;185;181.7;195.9
CO;uur;�g/m�;20180104 03:00;20180104 04:00;137;197.65;186.53;;196.6;92.5;180.2;185.2;198.6
CO;uur;�g/m�;20180104 04:00;20180104 05:00;144.8;186.26;191.22;;192.2;84.4;186.1;184.9;201.4
CO;uur;�g/m�;20180104 05:00;20180104 06:00;144.42;211.45;188.72;;212.7;98.7;195.8;182.8;202.1
CO;uur;�g/m�;20180104 06:00;20180104 07:00;144.61;270.18;203.85;;226.8;106.1;195.2;191.1;218.7
CO;uur;�g/m�;20180104 07:00;20180104 08:00;149.05;346.34;255.07;;251.6;138;204.6;198.5;228.6
CO;uur;�g/m�;20180104 08:00;20180104 09:00;172.95;375.75;245.89;;317;151.4;209.3;205.1;247.1
CO;uur;�g/m�;20180104 09:00;20180104 10:00;165.92;309.57;226.9;;353.3;187.8;202.8;192.3;273.8
CO;uur;�g/m�;20180104 10:00;20180104 11:00;179.7;320.65;265.71;;426.7;170.1;206.6;201.6;298.7
CO;uur;�g/m�;20180104 11:00;20180104 12:00;220.48;350.47;317.45;384;399;160;225.3;344.6;307.2
CO;uur;�g/m�;20180104 12:00;20180104 13:00;218.17;338.98;247.66;433.5;420.8;164.1;250.2;956.3;319.1
CO;uur;�g/m�;20180104 13:00;20180104 14:00;178.26;324.98;291.89;;407.3;149.8;271.2;420.9;306.8
CO;uur;�g/m�;20180104 14:00;20180104 15:00;181.44;300.9;279.06;;473.7;154.6;246.1;279.4;278.9
CO;uur;�g/m�;20180104 15:00;20180104 16:00;171.12;368.3;273.22;;494.9;170.2;275.7;660.9;315
CO;uur;�g/m�;20180104 16:00;20180104 17:00;138.83;455.54;258.3;284.8;372.2;180.8;197.6;193;214.3
CO;uur;�g/m�;20180104 17:00;20180104 18:00;147.6;433.17;218.55;226.4;263;118.2;181.8;159.6;186.4
CO;uur;�g/m�;20180104 18:00;20180104 19:00;160.9;331.53;190.6;204.4;239.3;108;184.3;172.1;184.2
CO;uur;�g/m�;20180104 19:00;20180104 20:00;153.58;297.18;208.44;191.4;221.7;113.4;192.9;185.2;188.6
CO;uur;�g/m�;20180104 20:00;20180104 21:00;158.5;300.6;204.26;198.6;208.1;115;193.2;178.4;184.8
CO;uur;�g/m�;20180104 21:00;20180104 22:00;149.24;273.7;191.33;194.3;204.7;99.7;187.9;173.3;182.7
CO;uur;�g/m�;20180104 22:00;20180104 23:00;143.74;245.9;204.79;192.6;218.5;92.9;186.5;167.6;180.7
CO;uur;�g/m�;20180104 23:00;20180105 00:00;152.45;248.22;195.01;180.4;203.1;68;176.5;162.7;185.6
CO;uur;�g/m�;20180105 00:00;20180105 01:00;184.82;208.46;204.41;178.6;194.2;78;166.8;164.4;186
CO;uur;�g/m�;20180105 01:00;20180105 02:00;175.08;219.11;209.05;173.3;201.7;90.2;169.2;167.8;186.1
CO;uur;�g/m�;20180105 02:00;20180105 03:00;164.18;212.82;210.5;163.3;202.9;78.2;164.4;165.3;184.7
CO;uur;�g/m�;20180105 03:00;20180105 04:00;168.33;224;201.77;171.4;210.8;86.2;173.5;170.3;178.5
CO;uur;�g/m�;20180105 04:00;20180105 05:00;174.3;190.76;186.48;159;202.7;58.9;171.8;169.6;178.1
CO;uur;�g/m�;20180105 05:00;20180105 06:00;164.38;229.59;186.17;170.2;197.6;77.7;172.8;168.3;193.1
CO;uur;�g/m�;20180105 06:00;20180105 07:00;174.79;251.06;180.97;200.5;271.1;104.1;179.7;174.9;214.9
CO;uur;�g/m�;20180105 07:00;20180105 08:00;173.92;391.01;204.68;268.9;372.1;172.6;205;180.4;217.5
CO;uur;�g/m�;20180105 08:00;20180105 09:00;179.22;307.16;280.5;337.5;418.8;226;195.7;327;302.4
CO;uur;�g/m�;20180105 09:00;20180105 10:00;198.02;294.18;382.42;402.6;506.1;200.6;128.9;186.8;395.1
CO;uur;�g/m�;20180105 10:00;20180105 11:00;191.27;335.01;237.13;440.3;528;168.2;170.9;188.6;326.5
CO;uur;�g/m�;20180105 11:00;20180105 12:00;179.8;325.92;255.33;378.1;445.3;173.7;197.7;197.4;323.1
CO;uur;�g/m�;20180105 12:00;20180105 13:00;199.47;380.03;268.43;372.9;445.8;165.3;205.3;213.9;289.7
CO;uur;�g/m�;20180105 13:00;20180105 14:00;234.46;366.25;260.95;419.1;496.7;190;225.5;338.1;313.6
CO;uur;�g/m�;20180105 14:00;20180105 15:00;262.61;345.59;348;476.4;536;199.2;241.4;409.7;328.5
CO;uur;�g/m�;20180105 15:00;20180105 16:00;217.21;497.52;292.98;332.5;433.3;205.7;191.9;173.5;283.7
CO;uur;�g/m�;20180105 16:00;20180105 17:00;226.56;456.69;275.92;357.8;529.7;169;222.6;481;260.3
CO;uur;�g/m�;20180105 17:00;20180105 18:00;227.52;410.47;253.25;612.5;606.6;242.2;231.1;1908.5;395.9
CO;uur;�g/m�;20180105 18:00;20180105 19:00;208.91;338.7;253.77;457.9;529.1;252.6;259.8;2199.9;407.6
CO;uur;�g/m�;20180105 19:00;20180105 20:00;218.07;345.39;312.32;391.8;476.2;251.3;276.4;472.7;359.9
CO;uur;�g/m�;20180105 20:00;20180105 21:00;289.41;382.92;339.05;301.7;412;206.6;210.1;204.6;251.7
CO;uur;�g/m�;20180105 21:00;20180105 22:00;260.97;290.98;250.65;348.7;375.5;169.5;194.8;183.5;285
CO;uur;�g/m�;20180105 22:00;20180105 23:00;243.62;296.77;251.17;286.1;381.6;162;189.3;218.1;281.3
CO;uur;�g/m�;20180105 23:00;20180106 00:00;258.76;290.02;242.26;272.4;330.2;160.1;178.2;197;247.4
CO;uur;�g/m�;20180106 00:00;20180106 01:00;207.56;172.87;242.27;246.2;304.8;141.2;172.8;193.1;231.4
CO;uur;�g/m�;20180106 01:00;20180106 02:00;194.65;186.47;222.47;237;287.8;154.1;184.7;202.2;206.1
CO;uur;�g/m�;20180106 02:00;20180106 03:00;166.11;202.54;263.44;190.9;233.6;115.7;179.7;201.5;171.4
CO;uur;�g/m�;20180106 03:00;20180106 04:00;156.66;213.82;233.18;185.2;243.1;110.3;190.2;208.2;177.7
CO;uur;�g/m�;20180106 04:00;20180106 05:00;151.36;216.32;269.68;196.8;249;105.8;190.3;207.8;214.2
CO;uur;�g/m�;20180106 05:00;20180106 06:00;158.78;195.65;214.46;200.5;264.4;121.1;183.9;196.6;221
CO;uur;�g/m�;20180106 06:00;20180106 07:00;163.89;229.99;222.78;276.6;361.6;137.5;193.5;208.2;367.5
CO;uur;�g/m�;20180106 07:00;20180106 08:00;198.31;201.44;242.23;319.5;419.6;164.1;209.6;223.1;481.8
CO;uur;�g/m�;20180106 08:00;20180106 09:00;216.82;284.89;273.53;461.2;575;827.3;246;197.8;424.9
CO;uur;�g/m�;20180106 09:00;20180106 10:00;207.76;296.77;342.9;545.6;622.2;499;344.4;177.9;410.3
CO;uur;�g/m�;20180106 10:00;20180106 11:00;228.68;376.43;390.01;619;641;292.7;317;209.8;537.2
CO;uur;�g/m�;20180106 11:00;20180106 12:00;273.89;408.08;398.54;718.7;708;423.9;400.3;204.4;589
CO;uur;�g/m�;20180106 12:00;20180106 13:00;295.87;479.15;434.63;646.2;461.9;421.1;286.3;219.6;551
CO;uur;�g/m�;20180106 13:00;20180106 14:00;250.17;616.11;403.63;491.4;375.7;252.3;239.7;219.1;449.7
CO;uur;�g/m�;20180106 14:00;20180106 15:00;274.76;746.28;395.94;437.8;302.4;219.1;215.5;207.1;338.8
CO;uur;�g/m�;20180106 15:00;20180106 16:00;300.31;669.32;412.79;408.2;300.5;192.8;207;210.3;296.3
CO;uur;�g/m�;20180106 16:00;20180106 17:00;240.63;611.62;481.43;340.2;260.9;190.8;222;226.4;243.4
CO;uur;�g/m�;20180106 17:00;20180106 18:00;219.52;404.18;381.38;367.8;276.6;216.1;250.2;251.2;296
CO;uur;�g/m�;20180106 18:00;20180106 19:00;182.21;317.44;326.36;372.3;282.5;213.2;253.1;258;294.8
CO;uur;�g/m�;20180106 19:00;20180106 20:00;185.2;272.72;306.91;396.8;290;237.7;243.9;261.2;304.2
CO;uur;�g/m�;20180106 20:00;20180106 21:00;175.65;279.41;269.47;397.2;298.4;228.8;251.5;261.6;304
CO;uur;�g/m�;20180106 21:00;20180106 22:00;186.93;272.62;309.93;392.4;316.5;261.2;248.8;255.7;295.8
CO;uur;�g/m�;20180106 22:00;20180106 23:00;191.27;268.82;323.76;422.1;335.8;276.2;249.9;260.9;318
CO;uur;�g/m�;20180106 23:00;20180107 00:00;189.34;279.9;280.12;381.9;342.6;262.1;238.3;249.3;315.5
CO;uur;�g/m�;20180107 00:00;20180107 01:00;246.12;290.66;286.19;362.9;356.1;256;218.9;244.1;306.1
CO;uur;�g/m�;20180107 01:00;20180107 02:00;248.15;252.95;275.19;256.6;280.2;178.5;226;261;253.1
CO;uur;�g/m�;20180107 02:00;20180107 03:00;229.35;226.7;267.91;260.8;263.3;147.4;246.4;256;238.6
CO;uur;�g/m�;20180107 03:00;20180107 04:00;222.89;212.72;261.47;238.2;260.1;145.7;235.3;247.5;231.7
CO;uur;�g/m�;20180107 04:00;20180107 05:00;220;190.76;260.74;231.6;245.6;151.8;235.1;255.4;231.8
CO;uur;�g/m�;20180107 05:00;20180107 06:00;214.31;178.38;256.06;230;251.3;161.6;235.9;250.7;233.8
CO;uur;�g/m�;20180107 06:00;20180107 07:00;214.51;175.99;257.83;225.2;239.9;159.4;230.5;228.8;232.2
CO;uur;�g/m�;20180107 07:00;20180107 08:00;201.88;195.55;267.29;218.2;216;160.6;220.6;224.3;207.1
CO;uur;�g/m�;20180107 08:00;20180107 09:00;182.6;196.95;250.55;200.8;209.9;164.3;207.9;199.9;194.3
CO;uur;�g/m�;20180107 09:00;20180107 10:00;191.08;193.56;287.99;217.6;206.8;199;205.5;203.6;200.1
CO;uur;�g/m�;20180107 10:00;20180107 11:00;193.59;207.83;275.71;230.3;207.7;238.5;201.9;201.1;189.6
CO;uur;�g/m�;20180107 11:00;20180107 12:00;182.6;256.15;276.75;243;204.7;277.4;192.8;210.1;191.1
CO;uur;�g/m�;20180107 12:00;20180107 13:00;178.84;221.41;309.2;240.3;214.1;286.9;194.4;224.6;200
CO;uur;�g/m�;20180107 13:00;20180107 14:00;186.74;210.63;320.33;275.8;213.5;289.7;195;387.7;213.8
CO;uur;�g/m�;20180107 14:00;20180107 15:00;181.15;226.9;288.71;277.3;217;280;196.8;224;217.6
CO;uur;�g/m�;20180107 15:00;20180107 16:00;184.91;256.55;335.31;273;225.7;304.8;203.3;218.2;214.5
CO;uur;�g/m�;20180107 16:00;20180107 17:00;196.38;251.65;321.89;277.3;227.3;322.9;208.2;192.8;220.8
CO;uur;�g/m�;20180107 17:00;20180107 18:00;198.41;323.93;308.06;282.7;229;324.1;208.7;200.4;239.7
CO;uur;�g/m�;20180107 18:00;20180107 19:00;216.34;279.51;315.03;262.5;225.5;336.9;202.1;224.1;237.9
CO;uur;�g/m�;20180107 19:00;20180107 20:00;193.3;259.44;356.73;267.1;229.6;328.2;202.3;245;219.7
CO;uur;�g/m�;20180107 20:00;20180107 21:00;192.43;233.88;284.97;251.7;245.6;306.1;196.4;263.7;219.2
CO;uur;�g/m�;20180107 21:00;20180107 22:00;199.18;232.19;292.04;255.2;225.6;293.9;201.2;273.8;214.6
CO;uur;�g/m�;20180107 22:00;20180107 23:00;199.95;243.27;330.21;243.5;226.7;284.7;201.6;271.7;231.6
CO;uur;�g/m�;20180107 23:00;20180108 00:00;185.62;207.1;304.8;234.8;242.4;292.6;204.5;278.3;209.8
CO;uur;�g/m�;20180108 00:00;20180108 01:00;173.65;223.37;145.36;234.5;237.3;298.6;212.2;260.3;207.5
CO;uur;�g/m�;20180108 01:00;20180108 02:00;176.62;254.65;128.86;225.8;222.1;276.3;216.4;279.1;206.6
CO;uur;�g/m�;20180108 02:00;20180108 03:00;174.11;255.75;123.45;217;223.9;285.5;221.8;256.3;198.2
CO;uur;�g/m�;20180108 03:00;20180108 04:00;174.5;239.87;110.86;205;226.1;287.3;224.8;276.2;188.4
CO;uur;�g/m�;20180108 04:00;20180108 05:00;173.15;250.96;102.54;205.1;220.8;283.8;227.7;263.8;192.1
CO;uur;�g/m�;20180108 05:00;20180108 06:00;183.95;248.76;110.24;212.2;220.4;273.3;229.4;281.7;194.1
CO;uur;�g/m�;20180108 06:00;20180108 07:00;180.57;283.7;142.17;226.6;241.2;279;237.8;271;208.3
CO;uur;�g/m�;20180108 07:00;20180108 08:00;197.73;417.66;184.08;265.4;277.7;314;235.1;265.4;217.8
CO;uur;�g/m�;20180108 08:00;20180108 09:00;206.79;412.67;220.59;314.5;342.7;319.2;240.2;266.7;237.5
CO;uur;�g/m�;20180108 09:00;20180108 10:00;223.47;419.76;167.96;301.6;347.9;325.9;235.2;275.9;233.5
CO;uur;�g/m�;20180108 10:00;20180108 11:00;232.05;372.54;172.95;266.4;274.3;330.5;240.4;280.5;222.5
CO;uur;�g/m�;20180108 11:00;20180108 12:00;228.29;398.2;165.98;253.2;266.8;343.4;238.9;284.5;225.8
CO;uur;�g/m�;20180108 12:00;20180108 13:00;233.4;357.67;197.6;273.9;292.8;355;245.2;290.6;227
CO;uur;�g/m�;20180108 13:00;20180108 14:00;245.07;404.38;214.35;301.3;320.7;338.3;252.2;315;236
CO;uur;�g/m�;20180108 14:00;20180108 15:00;240.44;402.29;224.96;329.1;305.4;349.5;254.7;314.1;243.5
CO;uur;�g/m�;20180108 15:00;20180108 16:00;246.03;387.51;229.43;323;346.7;350.1;261.2;314.7;387.9
CO;uur;�g/m�;20180108 16:00;20180108 17:00;286.62;460.59;180.44;373.9;373.6;397.6;283.6;333.1;277
CO;uur;�g/m�;20180108 17:00;20180108 18:00;315.06;551.22;205.2;397.7;386.4;409.6;290.6;313.2;296.3
CO;uur;�g/m�;20180108 18:00;20180108 19:00;298.96;431.54;238.06;347.1;343.8;363;282.6;285.8;287.8
CO;uur;�g/m�;20180108 19:00;20180108 20:00;312.74;423.85;241.39;333.6;310.8;352;285.3;270.9;263.6
CO;uur;�g/m�;20180108 20:00;20180108 21:00;295.2;398.8;226.83;335.5;329.2;354.2;261.7;272.2;258.9
CO;uur;�g/m�;20180108 21:00;20180108 22:00;301.46;389.61;226;308.2;301.4;345.6;275.5;265;249.3
CO;uur;�g/m�;20180108 22:00;20180108 23:00;324.31;426.75;248.77;314;322.2;357.7;276.6;263;244
CO;uur;�g/m�;20180108 23:00;20180109 00:00;292.31;457.99;223.67;333.8;338.2;362.5;277.7;271.9;255.2
CO;uur;�g/m�;20180109 00:00;20180109 01:00;281.31;335.76;269.52;327.2;322.2;386.9;282;282;255.1
CO;uur;�g/m�;20180109 01:00;20180109 02:00;279.16;349.57;251.88;310.3;303.9;384.3;286.2;273.7;254.3
CO;uur;�g/m�;20180109 02:00;20180109 03:00;270.26;321.89;222.47;295.8;300.5;369.2;284.7;272;254
CO;uur;�g/m�;20180109 03:00;20180109 04:00;274.23;316.98;180.62;294.6;300.8;354.8;284.5;274.1;252
CO;uur;�g/m�;20180109 04:00;20180109 05:00;271.13;319.39;240.79;302;319.7;345.1;274.4;277;254.4
CO;uur;�g/m�;20180109 05:00;20180109 06:00;282.06;370.73;255.54;336.2;342.2;366.7;297.3;280.4;260.8
CO;uur;�g/m�;20180109 06:00;20180109 07:00;277.32;428.79;280.45;371.8;368.2;394.2;326.6;292.4;298.2
CO;uur;�g/m�;20180109 07:00;20180109 08:00;334.47;634.96;339.88;428.4;435.1;408.1;343;313;307
CO;uur;�g/m�;20180109 08:00;20180109 09:00;378.95;659.23;320.42;537.6;599.8;444.4;376.3;314.1;324.5
CO;uur;�g/m�;20180109 09:00;20180109 10:00;380.49;565.57;290.91;486.2;488.6;459.2;353.6;313;325.4
CO;uur;�g/m�;20180109 10:00;20180109 11:00;371.99;493.77;277.31;498.7;533.7;462.6;359;326;310.8
CO;uur;�g/m�;20180109 11:00;20180109 12:00;396.45;503.1;295.72;523.5;508.4;499.7;379;336.5;340.4
CO;uur;�g/m�;20180109 12:00;20180109 13:00;423.62;556.04;358.72;552.4;632.4;525;408.7;358.1;362.8
CO;uur;�g/m�;20180109 13:00;20180109 14:00;458.33;629.65;365.63;588;680.3;540.3;460.5;414.1;395.7
CO;uur;�g/m�;20180109 14:00;20180109 15:00;476.61;606.28;413.76;678.3;891.6;550.2;535.7;462;584.3
CO;uur;�g/m�;20180109 15:00;20180109 16:00;477.77;684.3;421.82;744.5;924.5;534.3;543.8;494.4;532.4
CO;uur;�g/m�;20180109 16:00;20180109 17:00;457.17;699.34;502.6;846.7;880.2;525.2;569.7;572.6;540.6
CO;uur;�g/m�;20180109 17:00;20180109 18:00;449.54;803.83;537.45;771.9;886.4;474.5;599.2;544;537.4
CO;uur;�g/m�;20180109 18:00;20180109 19:00;484.73;738.85;508.36;777.8;817.9;424.8;567.6;588.7;463.6
CO;uur;�g/m�;20180109 19:00;20180109 20:00;459.01;533.88;385.19;670.9;725.2;401.2;533;558.2;443.8
CO;uur;�g/m�;20180109 20:00;20180109 21:00;409.21;567.78;449.24;772.9;661.4;405.9;544.2;548.4;465.8
CO;uur;�g/m�;20180109 21:00;20180109 22:00;424.01;453.06;473.83;546.4;604.9;362.3;565.4;566.6;568.4
CO;uur;�g/m�;20180109 22:00;20180109 23:00;484.73;442.53;299.7;502.5;526;336.4;524.1;583.1;437.4
CO;uur;�g/m�;20180109 23:00;20180110 00:00;475.87;406.2;296.91;487.7;545.7;328.8;459.5;1221.6;417.1
CO;uur;�g/m�;20180110 00:00;20180110 01:00;412.49;406.07;360.22;461.5;500.3;351.8;412.3;785.7;413.4
CO;uur;�g/m�;20180110 01:00;20180110 02:00;390.84;384.97;349.2;469.8;519.3;359.7;411.9;787;438
CO;uur;�g/m�;20180110 02:00;20180110 03:00;337.17;348.67;322.62;492.7;524.6;383.9;434.2;515;440.5
CO;uur;�g/m�;20180110 03:00;20180110 04:00;307.01;351.08;305.35;464.8;474.5;338.3;469.3;493;396.4
CO;uur;�g/m�;20180110 04:00;20180110 05:00;319.58;352.28;319.27;435.8;437.4;295.4;486.9;504.7;338.1
CO;uur;�g/m�;20180110 05:00;20180110 06:00;313.87;332.82;288.5;415;456.3;270.8;455.1;468.4;300
CO;uur;�g/m�;20180110 06:00;20180110 07:00;258.47;350.47;308.7;458;516.8;254.8;397.9;429.9;302.9
CO;uur;�g/m�;20180110 07:00;20180110 08:00;257.79;357.19;295.93;568.3;549.4;232.8;396.6;424.6;294.8